[[{"header":{"parameterUnit":"m.s-1","parameterCategory":1,"la1":30.2991,"la2":30.254,"lo1":-89.0895,"lo2":-89.0444,"dy":0.0017,"dx":0.0017,"nx":28,"ny":28,"refTime":"2025-03-19T03:00:00:Z","depth":0,"parameterNumber":2,"parameterNumberName":"U-component_of_WINDS"},"data":[0,0,0,0,0,0,0,0,0,0,0,0,0,0,0,0,0,0,0,0,0,0,0,0,0,0,0,0,0,0,0,0,0,0,0,0,0,0,0,0,0,0,0,0,0,0,0,0,0,0,0,0,0,0,0,0,0,0,2.402,2.402,0,2.4033,2.4034,2.4034,2.3979,2.3977,2.3976,2.3974,2.3987,2.3989,2.399,0,0,0,0,0,0,0,0,0,0,0,0,0,2.3949,2.395,2.402,2.402,2.4021,2.4033,2.4034,2.4034,2.3979,2.3977,2.3975,2.3973,2.3986,2.3988,2.3991,0,0,0,0,0,0,0,0,0,0,0,0,0,2.3973,2.3951,2.402,2.3995,2.3993,2.4033,2.4034,2.4034,2.3979,2.3977,2.3975,2.3972,2.3985,2.3988,2.3991,2.4056,0,0,2.3999,2.4,0,0,0,0,0,0,0,0,2.3971,2.3975,2.3998,2.3997,2.3994,2.4002,2.4013,2.4041,2.398,2.3984,2.3974,2.3971,2.3994,2.3996,2.4003,2.4057,2.4057,2.4,2.4001,2.4002,2.4003,0,0,0,0,0,0,0,2.397,2.3974,2.4025,2.3999,2.3996,2.3983,2.3984,2.4018,2.4002,2.3984,2.398,2.3982,2.3992,2.4001,2.4003,2.4058,2.3999,2.4002,2.4004,2.4005,2.4168,2.417,0,0,0,0,0,0,2.3971,2.3973,2.4025,2.4026,2.3977,2.3986,2.3987,2.4002,2.4002,2.4,2.3984,2.398,2.3997,2.4,2.4004,2.4081,2.4002,2.4005,2.4007,2.4165,2.4168,2.4171,0,0,0,0,0,0,2.397,2.3976,2.4024,2.3999,2.4004,2.399,2.4007,2.4004,2.4012,2.4002,2.3999,2.3996,2.3996,2.4,2.4044,2.4081,2.4006,2.4009,2.4162,2.4166,2.417,2.4237,0,0,0,0,0,0,2.3968,2.3976,2.4001,2.4,2.4005,2.4065,2.4009,2.4006,2.4017,2.4011,2.4012,2.401,2.3994,2.404,2.4047,2.4083,2.4011,2.4159,2.4164,2.4169,2.4231,2.4243,2.4252,0,0,0,0,0,2.3966,2.4018,2.4002,2.4009,2.4035,2.4067,2.407,2.405,2.402,2.4045,2.4039,2.401,2.4076,2.4045,2.4052,2.409,2.4156,2.4162,2.4168,2.4227,2.424,2.4252,0,0,0,0,0,0,2.4023,2.4018,2.3999,2.4053,2.4061,2.4058,2.4088,2.4065,2.4082,2.4075,2.405,2.4051,2.41,2.41,2.4065,2.4155,2.4111,2.4119,2.4153,2.4166,2.4177,2.4175,2.4013,0,0,0,0,0,2.4042,2.4068,2.4062,2.411,2.4115,2.4101,2.4114,2.4098,2.4105,2.4108,2.4105,2.4113,2.4136,2.4151,2.4171,2.4232,2.4232,2.4261,2.4272,2.4281,2.4287,2.4321,2.4334,2.4191,2.4191,2.4191,0,0,2.4081,2.4082,2.4099,2.4122,2.4126,2.4154,2.4104,2.4135,2.4156,2.4113,2.4155,2.4154,2.4161,2.4214,2.4237,2.4215,2.4327,2.4288,2.4295,2.4297,2.4328,2.4342,2.4354,2.4195,2.4194,2.4194,0,0,2.4167,2.417,2.4211,2.4217,2.4224,2.4215,2.4225,2.4226,2.4223,2.4265,2.4234,2.4259,2.4298,2.4305,2.4313,2.4405,2.438,2.4413,2.4467,2.4501,2.4512,2.4522,2.4555,2.4567,2.442,2.442,2.442,0,2.4214,2.4255,2.4234,2.4268,2.428,2.4244,2.4285,2.4292,2.4306,2.4315,2.429,2.434,2.4342,2.4397,2.442,2.4428,2.4439,2.4412,2.4512,2.4522,2.453,2.4562,2.4575,2.4424,2.4423,2.4423,2.4422,0,2.4314,2.4343,2.4375,2.4391,2.4406,2.4443,2.4429,2.4447,2.4431,2.4425,2.4469,2.4471,2.4492,2.4504,2.4488,2.4558,2.4544,2.4516,2.4471,2.4548,2.4578,2.459,2.4429,2.4428,2.4427,2.4426,0,0,2.4433,2.4439,2.4451,2.4459,2.4466,2.4488,2.4525,2.4546,2.4562,2.4574,2.4605,2.464,2.4615,2.4625,2.461,2.4639,2.4713,2.4608,2.4608,2.4628,2.4792,2.4812,2.4827,2.4697,2.4699,2.4701,2.4791,0,2.4518,2.4581,2.4565,2.4628,2.4656,2.4623,2.4656,2.4664,2.466,2.4683,2.4678,2.4704,2.4669,2.4675,2.4703,2.4698,2.4746,2.4692,2.4726,2.4727,2.4725,2.4842,2.4863,2.4948,2.4802,2.4804,2.4806,0,2.4624,2.4641,2.4708,2.4712,2.4723,2.4753,2.4772,2.4794,2.4804,2.4799,2.4812,2.4792,2.4829,2.4786,2.4837,2.4801,2.4814,2.4815,2.4818,2.482,2.4771,2.4847,2.4974,2.4987,2.4823,2.4822,2.4821,0,2.4706,2.4745,2.479,2.4798,2.4804,2.4826,2.483,2.4837,2.4851,2.4868,2.4878,2.4899,2.491,2.4928,2.4914,2.4883,2.4969,2.4923,2.4966,2.4967,2.4985,2.4984,2.5116,2.4994,2.4994,2.4994,2.4993,0,2.4801,2.4843,2.4827,2.4855,2.4902,2.4884,2.493,2.493,2.4938,2.4965,2.4939,2.4965,2.4946,2.4972,2.4962,2.5007,2.5012,2.501,2.5006,2.5012,2.5012,2.502,2.5013,2.4997,2.4996,2.4995,2.4995,0,2.4899,2.489,2.4938,2.4941,2.4943,2.4977,2.498,2.5006,2.5002,2.5037,2.5045,2.5037,2.5066,2.5054,2.5085,2.5078,2.5136,2.5125,2.5133,2.513,2.5174,2.517,2.5315,2.5334,2.52,2.5201,2.5202,0,2.496,2.4992,2.5,2.5017,2.5023,2.5051,2.5066,2.505,2.5067,2.5082,2.5107,2.5134,2.5154,2.5202,2.5199,2.5223,2.5212,2.5261,2.5215,2.522,2.5213,2.5211,2.5215,2.527,2.5272,2.5273,2.5274,0,2.5071,2.5065,2.5088,2.5111,2.5131,2.5147,2.5162,2.5177,2.5162,2.5183,2.5213,2.5229,2.5261,2.5288,2.531,2.5314,2.5292,2.5289,2.53,2.5306,2.5309,2.5309,2.5158,2.5285,2.5284,2.5283,2.5283,2.5282,2.5152,2.518,2.519,2.5217,2.5227,2.5242,2.5267,2.5267,2.5291,2.5316,2.5306,2.5341,2.5351,2.5378,2.5386,2.5413,2.5394,2.541,2.5414,2.5418,2.5424,2.5306,2.5417,2.5417,2.5416,2.5416,2.5416,0,2.5261,2.5267,2.5293,2.5314,2.5337,2.5315,2.5331,2.5351,2.5382,2.5394,2.5415,2.5451,2.5478,2.5478,2.5504,2.5525,2.5516,2.5533,2.5531,2.5532,2.544,2.5428,2.554,2.554,2.554,2.554,2.554,2.554,2.5321,2.5366,2.5363,2.5414,2.5419,2.5454,2.5465,2.5479,2.5489,2.5529,2.5552,2.5553,2.5561,2.5587,2.5611,2.5611,2.5621,2.5642,2.5638,2.5551,2.5538,2.5527,2.5515,2.5644,2.5644,2.5728,2.5729,2.5729]},{"header":{"parameterUnit":"m.s-1","parameterCategory":1,"la1":30.2991,"la2":30.254,"lo1":-89.0895,"lo2":-89.0444,"dy":0.0017,"dx":0.0017,"nx":28,"ny":28,"refTime":"2025-03-19T03:00:00:Z","depth":0,"parameterNumber":3,"parameterNumberName":"V-component_of_WINDS"},"data":[0,0,0,0,0,0,0,0,0,0,0,0,0,0,0,0,0,0,0,0,0,0,0,0,0,0,0,0,0,0,0,0,0,0,0,0,0,0,0,0,0,0,0,0,0,0,0,0,0,0,0,0,0,0,0,0,0,0,-6.5741,-6.5743,0,-6.5945,-6.5948,-6.595,-6.5879,-6.5874,-6.5869,-6.5865,-6.6073,-6.6083,-6.6093,0,0,0,0,0,0,0,0,0,0,0,0,0,-6.5288,-6.5297,-6.5741,-6.5744,-6.5746,-6.5945,-6.5948,-6.5951,-6.5879,-6.5874,-6.5868,-6.5863,-6.607,-6.6082,-6.6094,0,0,0,0,0,0,0,0,0,0,0,0,0,-6.5488,-6.53,-6.5741,-6.5735,-6.5736,-6.5945,-6.5948,-6.5951,-6.588,-6.5874,-6.5867,-6.586,-6.6066,-6.6081,-6.6095,-6.6322,0,0,-6.614,-6.6146,0,0,0,0,0,0,0,0,-6.5477,-6.5505,-6.5733,-6.5735,-6.5737,-6.588,-6.5865,-6.6076,-6.5882,-6.5826,-6.5865,-6.5857,-6.6014,-6.6033,-6.6086,-6.6331,-6.634,-6.6141,-6.615,-6.6156,-6.6161,0,0,0,0,0,0,0,-6.5463,-6.5496,-6.5822,-6.5736,-6.5739,-6.5721,-6.5742,-6.5904,-6.5956,-6.583,-6.5825,-6.5851,-6.6014,-6.6072,-6.609,-6.6343,-6.6141,-6.6154,-6.6163,-6.6169,-6.6785,-6.6792,0,0,0,0,0,0,-6.5448,-6.5485,-6.5815,-6.5828,-6.5588,-6.5735,-6.5758,-6.5841,-6.5954,-6.5964,-6.5856,-6.5846,-6.605,-6.6073,-6.6098,-6.6371,-6.6156,-6.617,-6.6178,-6.6777,-6.6787,-6.6795,0,0,0,0,0,0,-6.5439,-6.5478,-6.5807,-6.5655,-6.5696,-6.575,-6.5843,-6.5848,-6.5906,-6.5973,-6.5982,-6.5906,-6.6046,-6.6077,-6.6267,-6.6377,-6.6177,-6.619,-6.6769,-6.678,-6.6791,-6.6918,0,0,0,0,0,0,-6.5426,-6.5475,-6.5562,-6.5658,-6.5704,-6.5974,-6.585,-6.5857,-6.5932,-6.5921,-6.6022,-6.6033,-6.6043,-6.6245,-6.6281,-6.6393,-6.6201,-6.6759,-6.6774,-6.6787,-6.6905,-6.6933,-6.6957,0,0,0,0,0,-6.541,-6.559,-6.5567,-6.5607,-6.5814,-6.598,-6.6006,-6.6015,-6.5941,-6.6029,-6.6072,-6.6029,-6.6359,-6.6265,-6.6305,-6.6423,-6.6752,-6.677,-6.6786,-6.6893,-6.6927,-6.6956,0,0,0,0,0,0,-6.5506,-6.5602,-6.5578,-6.5794,-6.5879,-6.5968,-6.6078,-6.6051,-6.6159,-6.6145,-6.615,-6.6174,-6.6369,-6.6415,-6.6309,-6.6649,-6.6544,-6.657,-6.6612,-6.6645,-6.6671,-6.6656,-6.6214,0,0,0,0,0,-6.5552,-6.5679,-6.5756,-6.5939,-6.5983,-6.6024,-6.6096,-6.6096,-6.6184,-6.622,-6.6277,-6.6365,-6.6487,-6.6569,-6.6685,-6.6911,-6.6932,-6.7012,-6.7038,-6.7059,-6.7081,-6.7204,-6.7241,-6.6851,-6.6851,-6.685,0,0,-6.5648,-6.5717,-6.5797,-6.596,-6.6026,-6.6158,-6.6055,-6.6198,-6.6296,-6.6242,-6.6425,-6.647,-6.6567,-6.6776,-6.6871,-6.682,-6.7194,-6.7081,-6.7097,-6.7108,-6.7226,-6.7263,-6.7295,-6.6862,-6.686,-6.6859,0,0,-6.5892,-6.5957,-6.6116,-6.6185,-6.6286,-6.6312,-6.6351,-6.6444,-6.6472,-6.6655,-6.6618,-6.6734,-6.6945,-6.7017,-6.7081,-6.7352,-6.7318,-6.739,-6.7527,-6.7647,-6.7677,-6.7705,-6.7802,-6.7837,-6.7412,-6.7412,-6.7413,0,-6.5999,-6.6196,-6.6202,-6.6349,-6.6422,-6.638,-6.6542,-6.6608,-6.6742,-6.6794,-6.6735,-6.7001,-6.7063,-6.7289,-6.7355,-6.7408,-6.7452,-6.7379,-6.7672,-6.77,-6.7725,-6.7818,-6.7855,-6.7421,-6.742,-6.7419,-6.7418,0,-6.6324,-6.6461,-6.6578,-6.671,-6.6796,-6.6949,-6.6978,-6.7065,-6.7056,-6.7088,-6.7276,-6.735,-6.7481,-6.7534,-6.7528,-6.7759,-6.7725,-6.767,-6.7565,-6.7771,-6.7858,-6.7894,-6.7432,-6.7429,-6.7427,-6.7425,0,0,-6.6634,-6.6766,-6.6809,-6.6869,-6.6978,-6.7084,-6.7236,-6.7365,-6.7439,-6.7533,-6.7661,-6.7842,-6.7791,-6.7864,-6.7865,-6.797,-6.8181,-6.7902,-6.7904,-6.7952,-6.8441,-6.8483,-6.8524,-6.8158,-6.8165,-6.8171,-6.8433,0,-6.6887,-6.7154,-6.7163,-6.7407,-6.7534,-6.7496,-6.7628,-6.7709,-6.7743,-6.7856,-6.7892,-6.8021,-6.7944,-6.7988,-6.809,-6.8134,-6.828,-6.8115,-6.8277,-6.8283,-6.8255,-6.857,-6.8614,-6.8859,-6.8468,-6.8473,-6.8478,0,-6.7218,-6.7323,-6.758,-6.7671,-6.7725,-6.7844,-6.7963,-6.8071,-6.8162,-6.8179,-6.8261,-6.8247,-6.8402,-6.8291,-6.8505,-6.8393,-6.846,-6.8492,-6.8501,-6.8517,-6.8393,-6.8595,-6.8937,-6.8974,-6.8531,-6.8527,-6.8523,0,-6.7419,-6.7625,-6.7805,-6.7857,-6.7968,-6.8053,-6.8103,-6.8187,-6.8264,-6.8368,-6.8418,-6.8539,-6.8605,-6.8699,-6.8717,-6.8635,-6.8932,-6.8823,-6.8951,-6.8951,-6.9016,-6.9012,-6.9374,-6.9058,-6.9057,-6.9057,-6.9056,0,-6.7701,-6.786,-6.7897,-6.8008,-6.8185,-6.8194,-6.8369,-6.8413,-6.8488,-6.8607,-6.8581,-6.8693,-6.871,-6.8826,-6.8841,-6.9017,-6.9046,-6.9065,-6.9067,-6.9068,-6.9066,-6.9112,-6.9096,-6.9066,-6.9064,-6.9062,-6.9061,0,-6.7956,-6.7987,-6.8182,-6.8271,-6.8297,-6.8423,-6.85,-6.8606,-6.8637,-6.8788,-6.8823,-6.8872,-6.9007,-6.9035,-6.9195,-6.9205,-6.9414,-6.9399,-6.9384,-6.9382,-6.9509,-6.9497,-6.9915,-6.997,-6.9617,-6.962,-6.9623,0,-6.8134,-6.8256,-6.8358,-6.8436,-6.849,-6.8616,-6.8695,-6.8708,-6.8791,-6.8905,-6.8998,-6.913,-6.9237,-6.9455,-6.9505,-6.9627,-6.9615,-6.9753,-6.9633,-6.9631,-6.9618,-6.9611,-6.9624,-6.9776,-6.978,-6.9783,-6.9786,0,-6.8448,-6.8458,-6.8572,-6.8693,-6.8788,-6.8884,-6.8974,-6.904,-6.9065,-6.916,-6.9298,-6.9381,-6.9545,-6.9677,-6.98,-6.9851,-6.9824,-6.9823,-6.9859,-6.9862,-6.9848,-6.9858,-6.9447,-6.9813,-6.9811,-6.9809,-6.9807,-6.9806,-6.8671,-6.8777,-6.8866,-6.8995,-6.9065,-6.915,-6.9255,-6.9299,-6.9415,-6.955,-6.955,-6.9702,-6.979,-6.9952,-7.001,-7.0129,-7.0086,-7.0138,-7.0151,-7.0164,-7.0176,-6.9829,-7.0151,-7.015,-7.015,-7.0149,-7.0148,0,-6.8984,-6.9039,-6.9157,-6.9286,-6.9387,-6.9352,-6.9451,-6.9538,-6.9672,-6.9757,-6.9863,-7.0022,-7.015,-7.021,-7.0336,-7.042,-7.041,-7.0453,-7.0447,-7.0459,-7.0208,-7.0164,-7.0458,-7.0458,-7.0458,-7.0458,-7.0458,-7.0458,-6.9159,-6.9337,-6.9357,-6.957,-6.9624,-6.9773,-6.9832,-6.9911,-6.9979,-7.0158,-7.0265,-7.0302,-7.0378,-7.0509,-7.0625,-7.0639,-7.0687,-7.0736,-7.0744,-7.0508,-7.0477,-7.0447,-7.0406,-7.0746,-7.0747,-7.0986,-7.0989,-7.099]}]]